1507352400.31,60281,11.19,73132.3,-5.79,-6.35,-6.35,0,*56
1507352401.52,60282,11.19,73128.5,-5.79,-6.35,-6.31,0,*51
1507352402.73,60283,11.19,73128.5,-5.79,-6.35,-6.31,0,*50
1507352403.93,60284,11.19,73128.3,-5.79,-6.31,-6.35,0,*57
1507352405.14,60285,11.19,73128.8,-5.79,-6.35,-6.31,0,*56
1507352406.34,60286,11.19,73120.3,-5.79,-6.35,-6.35,0,*51
1507352407.54,60287,11.19,73126.8,-5.79,-6.35,-6.35,0,*50
1507352408.74,60288,11.13,73130.0,-5.83,-6.39,-6.39,0,*5A
1507352409.96,60289,11.19,73124.3,-5.85,-6.35,-6.39,0,*51
1507352411.15,60290,11.19,73132.0,-5.83,-6.39,-6.39,0,*53
1507352412.35,60291,11.13,73130.5,-5.83,-6.35,-6.35,0,*52
1507352413.54,60292,11.19,73134.5,-5.83,-6.39,-6.39,0,*51
1507352414.74,60293,11.19,73132.8,-5.79,-6.31,-6.35,0,*51
1507352415.94,60294,11.19,73132.3,-5.79,-6.31,-6.35,0,*56
1507352417.15,60295,11.19,73128.3,-5.79,-6.35,-6.35,0,*53
1507352418.35,60296,11.19,73128.0,-5.79,-6.31,-6.35,0,*54
1507352419.56,60297,11.19,73132.3,-5.79,-6.35,-6.35,0,*51
1507352420.75,60298,11.19,73132.5,-5.83,-6.39,-6.39,0,*5B
1507352421.94,60299,11.19,73134.5,-5.83,-6.35,-6.39,0,*56
1507352423.15,60300,11.19,73136.0,-5.79,-6.35,-6.31,0,*5A
1507352424.35,60301,11.19,73136.0,-5.79,-6.31,-6.35,0,*5B
1507352425.56,60302,11.19,73132.8,-5.79,-6.35,-6.31,0,*58
1507352426.77,60303,11.19,73138.3,-5.79,-6.31,-6.31,0,*5D
1507352427.97,60304,11.19,73138.5,-5.79,-6.35,-6.31,0,*5E
1507352429.18,60305,11.19,73136.0,-5.79,-6.31,-6.31,0,*5B
1507352430.38,60306,11.19,73134.5,-5.79,-6.35,-6.31,0,*5C
1507352431.59,60307,11.19,73134.8,-5.79,-6.35,-6.31,0,*5D
1507352432.8,60308,11.19,73138.3,-5.79,-6.35,-6.35,0,*56
1507352434.0,60309,11.19,73138.8,-5.79,-6.31,-6.35,0,*53
1507352435.2,60310,11.19,73134.5,-5.79,-6.35,-6.31,0,*5B
1507352436.43,60311,11.13,73132.5,-5.77,-6.35,-6.35,0,*50
1507352437.63,60312,11.19,73134.0,-5.83,-6.35,-6.35,0,*58
1507352438.83,60313,11.19,73140.0,-5.83,-6.39,-6.35,0,*55
1507352440.03,60314,11.19,73138.8,-5.83,-6.35,-6.39,0,*52
1507352441.23,60315,11.19,73132.8,-5.79,-6.35,-6.35,0,*5A
1507352442.43,60316,11.19,73134.5,-5.79,-6.31,-6.35,0,*5D
1507352443.64,60317,11.19,73136.5,-5.79,-6.35,-6.35,0,*58
1507352444.84,60318,11.19,73138.0,-5.79,-6.31,-6.31,0,*57
1507352446.05,60319,11.19,73138.5,-5.79,-6.35,-6.35,0,*56
1507352447.25,60320,11.19,73140.5,-5.79,-6.35,-6.31,0,*58
1507352448.46,60321,11.13,73134.8,-5.79,-6.35,-6.35,0,*5D
1507352449.69,60322,11.19,73128.5,-5.77,-6.35,-6.35,0,*50
1507352450.89,60323,11.19,73128.5,-5.79,-6.35,-6.35,0,*5F
1507352452.1,60324,11.19,73130.8,-5.79,-6.35,-6.31,0,*5C
1507352453.3,60325,11.19,73132.5,-5.79,-6.35,-6.35,0,*59
1507352454.51,60326,11.19,73130.3,-5.79,-6.35,-6.31,0,*5E
1507352455.71,60327,11.19,73122.3,-5.79,-6.31,-6.31,0,*5B
1507352456.92,60328,11.19,73130.3,-5.79,-6.35,-6.35,0,*54
1507352458.13,60329,11.19,73124.5,-5.79,-6.35,-6.31,0,*51
1507352459.33,60330,11.13,73126.3,-5.79,-6.31,-6.31,0,*5D
1507352460.54,60331,11.19,73130.8,-5.79,-6.35,-6.31,0,*58
1507352461.74,60332,11.19,73130.5,-5.79,-6.35,-6.31,0,*5B
1507352462.95,60333,11.19,73124.8,-5.79,-6.35,-6.31,0,*5A
1507352464.15,60334,11.13,73126.0,-5.79,-6.31,-6.35,0,*5D
1507352465.38,60335,11.19,73126.0,-5.77,-6.35,-6.31,0,*52
1507352466.59,60336,11.19,73120.8,-5.79,-6.31,-6.31,0,*5B
1507352467.8,60337,11.19,73124.5,-5.79,-6.35,-6.31,0,*5E
1507352469.02,60338,11.19,73124.0,-5.77,-6.31,-6.31,0,*5B
1507352470.23,60339,11.19,73128.3,-5.79,-6.35,-6.35,0,*54
1507352471.43,60340,11.13,73126.8,-5.79,-6.35,-6.31,0,*5E
1507352472.64,60341,11.19,73128.0,-5.79,-6.35,-6.31,0,*5F
1507352473.84,60342,11.19,73126.5,-5.79,-6.31,-6.35,0,*5C
1507352475.07,60343,11.13,73126.8,-5.77,-6.35,-6.35,0,*57
1507352476.3,60344,11.13,73124.5,-5.77,-6.35,-6.35,0,*50
1507352477.51,60345,11.19,73128.0,-5.79,-6.35,-6.31,0,*5B
1507352478.71,60346,11.13,73130.0,-5.79,-6.31,-6.31,0,*5C
1507352479.94,60347,11.13,73140.8,-5.77,-6.35,-6.31,0,*57
1507352481.15,60348,11.19,73140.0,-5.79,-6.35,-6.35,0,*52
1507352482.37,60349,11.13,73132.8,-5.77,-6.31,-6.31,0,*5D
1507352483.58,60350,11.13,73120.0,-5.79,-6.35,-6.31,0,*5F
1507352484.79,60351,11.19,73114.3,-5.79,-6.35,-6.35,0,*5A
1507352485.99,60352,11.13,73096.0,-5.79,-6.31,-6.31,0,*59
1507352487.22,60353,11.19,73110.5,-5.77,-6.31,-6.31,0,*56
1507352488.45,60354,11.19,73140.3,-5.77,-6.35,-6.31,0,*55
1507352489.65,60355,11.19,73124.8,-5.79,-6.35,-6.31,0,*5A
1507352490.86,60356,11.13,73122.3,-5.79,-6.35,-6.31,0,*59
1507352492.07,60357,11.13,73122.8,-5.79,-6.31,-6.31,0,*5C
1507352493.29,60358,11.13,73124.5,-5.79,-6.31,-6.23,0,*50
1507352494.49,60359,11.19,73124.3,-5.79,-6.31,-6.35,0,*56
1507352495.71,60360,11.19,73124.8,-5.79,-6.31,-6.23,0,*5B
1507352496.91,60361,11.13,73118.3,-5.79,-6.31,-6.31,0,*59
1507352498.14,60362,11.19,73116.0,-5.77,-6.35,-6.31,0,*50
1507352499.35,60363,11.13,73118.3,-5.79,-6.35,-6.31,0,*5F
1507352500.56,60364,11.13,73120.3,-5.79,-6.35,-6.35,0,*5C
1507352501.78,60365,11.13,73124.5,-5.77,-6.35,-6.35,0,*53
1507352502.99,60366,11.19,73130.3,-5.79,-6.35,-6.31,0,*5A
1507352504.2,60367,11.13,73128.5,-5.79,-6.31,-6.31,0,*5F
1507352505.4,60368,11.13,73132.0,-5.79,-6.31,-6.35,0,*54
1507352506.6,60369,11.13,73134.0,-5.79,-6.35,-6.35,0,*51
1507352507.81,60370,11.13,73138.0,-5.79,-6.31,-6.31,0,*59
1507352509.03,60371,11.19,73138.8,-5.77,-6.31,-6.35,0,*52
1507352510.24,60372,11.13,73136.0,-5.79,-6.35,-6.35,0,*5B
1507352511.44,60373,11.19,73136.3,-5.79,-6.35,-6.31,0,*5E
1507352512.65,60374,11.13,73132.8,-5.79,-6.35,-6.31,0,*59
1507352513.85,60375,11.13,73134.3,-5.79,-6.31,-6.35,0,*58
1507352515.05,60376,11.19,73136.8,-5.79,-6.31,-6.35,0,*5B
1507352516.28,60377,11.13,73136.0,-5.77,-6.35,-6.31,0,*54
1507352517.51,60378,11.13,73136.0,-5.77,-6.35,-6.35,0,*5F
1507352518.74,60379,11.19,73140.8,-5.77,-6.31,-6.35,0,*5A
1507352519.96,60380,11.19,73132.8,-5.77,-6.31,-6.35,0,*5C
1507352521.16,60381,11.19,73128.8,-5.79,-6.43,-6.35,0,*56
1507352522.39,60382,11.13,73126.8,-5.77,-6.31,-6.31,0,*5A
1507352523.59,60383,11.13,73122.8,-5.79,-6.31,-6.35,0,*51
1507352524.82,60384,11.13,73112.3,-5.77,-6.35,-6.35,0,*5C
1507352526.03,60385,11.19,73132.8,-5.79,-6.35,-6.31,0,*57
1507352527.26,60386,11.13,73134.5,-5.77,-6.35,-6.31,0,*5A
1507352528.46,60387,11.19,73120.8,-5.79,-6.31,-6.35,0,*55
1507352529.67,60388,11.13,73106.3,-5.79,-6.35,-6.35,0,*5E
1507352530.87,60389,11.19,73118.8,-5.79,-6.35,-6.31,0,*5B
1507352532.1,60390,11.13,73126.5,-5.77,-6.35,-6.31,0,*5D
1507352533.31,60391,11.19,73136.5,-5.79,-6.35,-6.35,0,*56
1507352534.53,60392,11.19,73136.5,-5.77,-6.31,-6.35,0,*5F
1507352535.74,60393,11.19,73140.3,-5.79,-6.31,-6.31,0,*54
1507352536.94,60394,11.19,73142.5,-5.79,-6.35,-6.31,0,*57
1507352538.17,60395,11.19,73140.0,-5.77,-6.31,-6.31,0,*5C
1507352539.4,60396,11.19,73138.5,-5.77,-6.35,-6.31,0,*5B
1507352540.63,60397,11.19,73132.8,-5.77,-6.31,-6.35,0,*5A
1507352541.85,60398,11.13,73128.0,-5.77,-6.31,-6.35,0,*55
1507352543.08,60399,11.13,73126.0,-5.77,-6.35,-6.31,0,*54
1507352544.28,60400,11.13,73126.3,-5.79,-6.43,-6.35,0,*58
1507352545.49,60401,11.19,73134.8,-5.79,-6.31,-6.35,0,*5C
1507352546.71,60402,11.19,73132.0,-5.79,-6.35,-6.23,0,*5C
1507352547.91,60403,11.19,73136.3,-5.79,-6.35,-6.35,0,*5A
1507352549.14,60404,11.19,73132.5,-5.77,-6.31,-6.31,0,*53
1507352550.39,60405,11.13,73134.3,-5.77,-6.35,-6.23,0,*55
1507352551.62,60406,11.19,73138.8,-5.77,-6.31,-6.35,0,*55
1507352552.84,60407,11.13,73136.3,-5.77,-6.35,-6.31,0,*54
1507352554.08,60408,11.13,73136.0,-5.77,-6.35,-6.31,0,*5B
1507352555.28,60409,11.13,73134.8,-5.79,-6.35,-6.35,0,*50
1507352556.51,60410,11.19,73132.8,-5.77,-6.35,-6.31,0,*52
1507352557.74,60411,11.19,73136.0,-5.77,-6.35,-6.35,0,*57
1507352558.94,60412,11.19,73138.0,-5.79,-6.31,-6.31,0,*5A
1507352560.17,60413,11.19,73134.3,-5.77,-6.31,-6.31,0,*55
1507352561.42,60414,11.13,73130.3,-5.77,-6.35,-6.23,0,*55
1507352562.66,60415,11.19,73134.5,-5.77,-6.31,-6.23,0,*50
1507352563.89,60416,11.19,73134.3,-5.75,-6.31,-6.27,0,*55
1507352565.12,60417,11.19,73130.3,-5.77,-6.35,-6.31,0,*55
1507352566.32,60418,11.19,73134.3,-5.79,-6.31,-6.35,0,*54
1507352567.55,60419,11.19,73128.5,-5.77,-6.31,-6.31,0,*5F
1507352568.75,60420,11.13,73128.3,-5.79,-6.31,-6.31,0,*5B
1507352569.98,60421,11.19,73134.0,-5.77,-6.31,-6.31,0,*54
1507352571.18,60422,11.19,73134.3,-5.79,-6.31,-6.31,0,*59
1507352572.39,60423,11.13,73128.5,-5.79,-6.35,-6.31,0,*5C
1507352573.61,60424,11.19,73128.8,-5.77,-6.31,-6.31,0,*51
1507352574.84,60425,11.19,73130.0,-5.77,-6.31,-6.31,0,*50
1507352576.07,60426,11.19,73130.0,-5.77,-6.31,-6.31,0,*53
1507352577.3,60427,11.13,73126.8,-5.77,-6.31,-6.31,0,*52
1507352578.53,60428,11.19,73130.3,-5.77,-6.35,-6.31,0,*59
1507352579.75,60429,11.19,73130.5,-5.77,-6.31,-6.31,0,*5C
1507352580.98,60430,11.19,73134.0,-5.75,-6.31,-6.27,0,*51
1507352582.22,60431,11.19,73134.0,-5.75,-6.27,-6.27,0,*57
1507352583.45,60432,11.13,73128.5,-5.75,-6.27,-6.31,0,*53
1507352584.69,60433,11.19,73124.3,-5.75,-6.27,-6.27,0,*55
1507352585.91,60434,11.19,73124.8,-5.75,-6.27,-6.31,0,*55
1507352587.14,60435,11.13,73122.0,-5.75,-6.31,-6.27,0,*54
1507352588.37,60436,11.13,73116.8,-5.77,-6.35,-6.31,0,*56
1507352589.59,60437,11.19,73126.0,-5.77,-6.35,-6.35,0,*53
1507352590.82,60438,11.13,73132.5,-5.77,-6.31,-6.31,0,*5C
1507352592.07,60439,11.19,73128.3,-5.75,-6.27,-6.27,0,*5F
1507352593.29,60440,11.19,73128.8,-5.77,-6.31,-6.31,0,*53
1507352594.52,60441,11.19,73126.3,-5.77,-6.31,-6.31,0,*52
1507352595.75,60442,11.19,73132.3,-5.77,-6.31,-6.31,0,*51
1507352596.98,60443,11.13,73124.8,-5.77,-6.35,-6.31,0,*54
1507352598.21,60444,11.19,73124.3,-5.77,-6.31,-6.31,0,*57
1507352599.43,60445,11.19,73130.3,-5.77,-6.35,-6.35,0,*56
1507352600.66,60446,11.19,73146.5,-5.77,-6.35,-6.31,0,*51
1507352601.89,60447,11.13,73136.3,-5.77,-6.31,-6.31,0,*54
1507352603.12,60448,11.13,73122.0,-5.77,-6.31,-6.35,0,*5F
1507352604.35,60449,11.19,73124.3,-5.77,-6.35,-6.31,0,*5E
1507352605.57,60450,11.13,73120.5,-5.77,-6.31,-6.31,0,*52
1507352606.8,60451,11.13,73130.3,-5.77,-6.31,-6.31,0,*53
1507352608.03,60452,11.19,73124.5,-5.77,-6.31,-6.35,0,*54
1507352609.25,60453,11.13,73122.3,-5.77,-6.35,-6.35,0,*51
1507352610.48,60454,11.19,73128.8,-5.77,-6.31,-6.31,0,*56
1507352611.71,60455,11.13,73134.8,-5.77,-6.31,-6.31,0,*57
1507352612.91,60456,11.13,73132.8,-5.79,-6.31,-6.31,0,*5A
1507352614.12,60457,11.13,73134.3,-5.79,-6.31,-6.31,0,*5B
1507352615.34,60458,11.13,73132.3,-5.77,-6.31,-6.35,0,*5E
1507352616.55,60459,11.13,73130.5,-5.79,-6.35,-6.35,0,*55
1507352617.78,60460,11.19,73124.3,-5.77,-6.35,-6.35,0,*51
1507352619.01,60461,11.13,73118.3,-5.77,-6.35,-6.31,0,*54
1507352620.23,60462,11.19,73126.3,-5.77,-6.31,-6.35,0,*57
1507352621.46,60463,11.13,73124.3,-5.77,-6.31,-6.35,0,*56
1507352622.68,60464,11.13,73118.3,-5.77,-6.31,-6.31,0,*55
1507352623.91,60465,11.13,73116.5,-5.77,-6.31,-6.31,0,*54
1507352625.14,60466,11.13,73120.5,-5.77,-6.31,-6.31,0,*57
1507352626.37,60467,11.19,73120.8,-5.77,-6.35,-6.31,0,*52
1507352627.6,60468,11.19,73126.5,-5.77,-6.35,-6.31,0,*5D
1507352628.82,60469,11.19,73128.0,-5.77,-6.31,-6.35,0,*5C
1507352630.05,60470,11.13,73128.5,-5.77,-6.31,-6.35,0,*54
1507352631.28,60471,11.19,73134.8,-5.77,-6.31,-6.31,0,*51
1507352632.5,60472,11.19,73132.3,-5.77,-6.31,-6.31,0,*52
1507352633.73,60473,11.13,73132.8,-5.77,-6.31,-6.31,0,*53
1507352634.96,60474,11.19,73138.3,-5.77,-6.31,-6.31,0,*54
1507352636.18,60475,11.13,73136.8,-5.77,-6.31,-6.35,0,*51
1507352637.41,60476,11.13,73136.3,-5.77,-6.35,-6.31,0,*52
1507352638.64,60477,11.19,73138.0,-5.77,-6.31,-6.31,0,*57
1507352639.87,60478,11.13,73138.0,-5.77,-6.31,-6.35,0,*5C
1507352641.09,60479,11.13,73134.5,-5.77,-6.31,-6.35,0,*5D
1507352642.32,60480,11.13,73134.3,-5.77,-6.31,-6.31,0,*5F
1507352643.54,60481,11.13,73130.3,-5.75,-6.27,-6.31,0,*5B
1507352644.78,60482,11.13,73130.5,-5.75,-6.27,-6.27,0,*5F
1507352646.02,60483,11.13,73130.5,-5.77,-6.35,-6.31,0,*58
1507352647.24,60484,11.13,73122.8,-5.77,-6.31,-6.35,0,*5F
1507352648.44,60485,11.13,73126.3,-5.75,-6.31,-6.31,0,*58
1507352649.69,60486,11.13,73128.0,-5.75,-6.27,-6.27,0,*5B
1507352650.89,60487,11.19,73132.0,-5.75,-6.31,-6.39,0,*52
1507352652.13,60488,11.19,73126.8,-5.75,-6.27,-6.27,0,*55
1507352653.34,60489,11.13,73122.0,-5.75,-6.35,-6.31,0,*50
1507352654.56,60490,11.19,73126.3,-5.75,-6.27,-6.31,0,*5B
1507352655.76,60491,11.19,73132.3,-5.75,-6.31,-6.31,0,*5D
1507352657.01,60492,11.13,73122.8,-5.75,-6.27,-6.27,0,*5E
1507352658.23,60493,11.13,73124.5,-5.75,-6.31,-6.27,0,*58
1507352659.46,60494,11.13,73122.8,-5.73,-6.31,-6.31,0,*5E
1507352660.69,60495,11.19,73130.3,-5.77,-6.35,-6.31,0,*5F
1507352661.92,60496,11.13,73126.5,-5.77,-6.35,-6.35,0,*58
1507352663.14,60497,11.13,73128.8,-5.75,-6.31,-6.27,0,*5C
1507352664.36,60498,11.13,73130.0,-5.75,-6.31,-6.27,0,*53
1507352665.59,60499,11.19,73124.5,-5.75,-6.31,-6.27,0,*52
1507352666.81,60500,11.19,73118.5,-5.75,-6.27,-6.31,0,*53
1507352668.01,60501,11.19,73116.3,-5.75,-6.31,-6.31,0,*55
1507352669.24,60502,11.13,73114.0,-5.75,-6.27,-6.31,0,*51
1507352670.46,60503,11.13,73122.5,-5.75,-6.31,-6.27,0,*50
1507352671.7,60504,11.13,73124.0,-5.75,-6.27,-6.27,0,*50
1507352672.93,60505,11.19,73128.0,-5.75,-6.27,-6.31,0,*56
1507352674.15,60506,11.13,73128.0,-5.75,-6.27,-6.31,0,*55
1507352675.37,60507,11.13,73126.5,-5.75,-6.31,-6.27,0,*54
1507352676.6,60508,11.19,73132.3,-5.75,-6.27,-6.31,0,*5B
1507352677.87,60509,11.19,73128.0,-5.73,-6.27,-6.27,0,*5B
1507352679.09,60510,11.13,73130.0,-5.75,-6.31,-6.27,0,*52
1507352680.31,60511,11.13,73132.5,-5.75,-6.31,-6.27,0,*53
1507352681.52,60512,11.13,73134.0,-5.75,-6.31,-6.31,0,*57
1507352682.74,60513,11.13,73142.5,-5.75,-6.27,-6.31,0,*51
1507352683.98,60514,11.19,73140.5,-5.75,-6.27,-6.27,0,*51
1507352685.19,60515,11.19,73140.8,-5.75,-6.31,-6.31,0,*50
1507352686.39,60516,11.13,73138.0,-5.75,-6.31,-6.31,0,*53
1507352687.61,60517,11.13,73136.8,-5.75,-6.31,-6.27,0,*55
1507352688.84,60518,11.13,73138.0,-5.75,-6.31,-6.27,0,*5A
1507352690.07,60519,11.19,73140.0,-5.77,-6.35,-6.31,0,*5A
1507352691.3,60520,11.13,73138.0,-5.77,-6.35,-6.35,0,*54
1507352692.5,60521,11.13,73136.0,-5.75,-6.31,-6.31,0,*57
1507352693.73,60522,11.13,73136.3,-5.73,-6.31,-6.31,0,*52
1507352694.93,60523,11.19,73140.3,-5.75,-6.31,-6.31,0,*55
1507352696.15,60524,11.19,73142.3,-5.75,-6.31,-6.27,0,*55
1507352697.4,60525,11.13,73140.8,-5.75,-6.27,-6.27,0,*53
1507352698.62,60526,11.13,73140.8,-5.75,-6.31,-6.27,0,*57
1507352699.85,60527,11.13,73140.3,-5.77,-6.31,-6.35,0,*57
1507352701.08,60528,11.13,73140.3,-5.77,-6.35,-6.31,0,*58
1507352702.3,60529,11.13,73142.5,-5.77,-6.31,-6.31,0,*5D
1507352703.53,60530,11.13,73142.5,-5.75,-6.31,-6.27,0,*50
1507352704.75,60531,11.19,73146.5,-5.75,-6.31,-6.27,0,*51
1507352705.98,60532,11.13,73142.3,-5.75,-6.27,-6.31,0,*52
1507352707.2,60533,11.19,73144.8,-5.75,-6.27,-6.31,0,*53
1507352708.42,60534,11.13,73144.3,-5.75,-6.31,-6.27,0,*54
1507352709.63,60535,11.13,73144.8,-5.75,-6.31,-6.31,0,*52
1507352710.85,60536,11.13,73144.8,-5.75,-6.31,-6.27,0,*56
1507352712.07,60537,11.13,73144.5,-5.75,-6.31,-6.27,0,*57
1507352713.32,60538,11.13,73142.5,-5.75,-6.27,-6.27,0,*5F
1507352714.54,60539,11.13,73142.0,-5.75,-6.27,-6.31,0,*59
1507352715.78,60540,11.13,73140.0,-5.75,-6.27,-6.27,0,*50
1507352717.01,60541,11.13,73140.3,-5.75,-6.31,-6.27,0,*56
1507352718.23,60542,11.19,73148.3,-5.75,-6.27,-6.31,0,*55
1507352719.48,60543,11.13,73142.3,-5.75,-6.27,-6.27,0,*53
1507352720.68,60544,11.13,73138.5,-5.75,-6.31,-6.31,0,*54
1507352721.95,60545,11.13,73142.5,-5.73,-6.27,-6.27,0,*53
1507352723.19,60546,11.19,73146.8,-5.73,-6.27,-6.31,0,*57
1507352724.42,60547,11.13,73146.8,-5.75,-6.31,-6.27,0,*50
1507352725.62,60548,11.13,73148.5,-5.75,-6.31,-6.31,0,*58
1507352726.87,60549,11.13,73146.8,-5.73,-6.27,-6.31,0,*58
1507352728.07,60550,11.13,73146.8,-5.75,-6.31,-6.31,0,*51
1507352729.27,60551,11.13,73144.8,-5.75,-6.31,-6.31,0,*50
1507352730.48,60552,11.13,73146.3,-5.75,-6.31,-6.31,0,*53
1507352731.7,60553,11.13,73134.5,-5.75,-6.27,-6.31,0,*55
1507352732.92,60554,11.13,73132.0,-5.75,-6.31,-6.27,0,*52
1507352734.13,60555,11.19,73132.0,-5.75,-6.31,-6.31,0,*54
1507352735.33,60556,11.13,73134.3,-5.75,-6.31,-6.31,0,*57
1507352736.58,60557,11.13,73144.3,-5.73,-6.31,-6.27,0,*57
1507352737.81,60558,11.13,73144.8,-5.73,-6.31,-6.31,0,*5F
1507352739.01,60559,11.13,73134.5,-5.75,-6.31,-6.31,0,*58
1507352740.26,60560,11.19,73142.0,-5.73,-6.27,-6.31,0,*53
1507352741.46,60561,11.13,73144.0,-5.75,-6.31,-6.31,0,*53
1507352742.73,60562,11.13,73142.3,-5.73,-6.27,-6.27,0,*56
1507352743.95,60563,11.19,73124.0,-5.75,-6.27,-6.31,0,*56
1507352745.18,60564,11.13,73110.0,-5.73,-6.31,-6.31,0,*50
1507352746.4,60565,11.19,73110.8,-5.75,-6.27,-6.31,0,*50
1507352747.65,60566,11.19,73120.8,-5.73,-6.31,-6.27,0,*55
1507352748.87,60567,11.19,73134.3,-5.73,-6.31,-6.31,0,*53
1507352750.12,60568,11.13,73136.3,-5.73,-6.31,-6.27,0,*5B
1507352751.35,60569,11.13,73136.0,-5.73,-6.31,-6.31,0,*5D
1507352752.59,60570,11.19,73142.8,-5.73,-6.27,-6.31,0,*52
1507352753.82,60571,11.19,73140.8,-5.73,-6.31,-6.31,0,*54
1507352755.05,60572,11.13,73142.0,-5.75,-6.31,-6.27,0,*56
1507352756.29,60573,11.13,73144.5,-5.73,-6.27,-6.31,0,*51
1507352757.52,60574,11.13,73144.8,-5.73,-6.31,-6.31,0,*51
1507352758.77,60575,11.13,73140.5,-5.73,-6.31,-6.27,0,*57
1507352759.99,60576,11.19,73136.0,-5.73,-6.31,-6.31,0,*53
1507352761.22,60577,11.13,73128.8,-5.73,-6.31,-6.31,0,*52
1507352762.44,60578,11.13,73134.0,-5.75,-6.27,-6.31,0,*5C
1507352763.65,60579,11.13,73130.5,-5.75,-6.31,-6.31,0,*5A
1507352764.91,60580,11.13,73126.3,-5.73,-6.27,-6.27,0,*5A
1507352766.14,60581,11.13,73116.3,-5.73,-6.31,-6.31,0,*5B
1507352767.34,60582,11.19,73116.8,-5.75,-6.31,-6.31,0,*5E
1507352768.57,60583,11.13,73138.8,-5.73,-6.31,-6.31,0,*59
1507352769.77,60584,11.19,73134.5,-5.75,-6.31,-6.31,0,*58
1507352771.0,60585,11.13,73138.0,-5.75,-6.31,-6.27,0,*5E
1507352772.23,60586,11.19,73132.3,-5.73,-6.31,-6.31,0,*5C
1507352773.42,60587,11.13,73130.0,-5.75,-6.39,-6.31,0,*53
1507352774.65,60588,11.13,73138.5,-5.73,-6.31,-6.31,0,*52
1507352775.87,60589,11.13,73140.5,-5.75,-6.31,-6.27,0,*52
1507352777.1,60590,11.19,73148.3,-5.73,-6.31,-6.31,0,*5B
1507352778.35,60591,11.13,73144.0,-5.73,-6.27,-6.31,0,*5D
1507352779.58,60592,11.13,73146.3,-5.73,-6.31,-6.31,0,*59
1507352780.82,60593,11.13,73150.8,-5.73,-6.31,-6.27,0,*5F
1507352782.05,60594,11.13,73140.3,-5.73,-6.31,-6.31,0,*5F
1507352783.3,60595,11.13,73142.5,-5.73,-6.27,-6.31,0,*59
1507352784.52,60596,11.13,73144.3,-5.73,-6.31,-6.31,0,*5D
1507352785.75,60597,11.19,73150.0,-5.73,-6.31,-6.31,0,*5C
1507352786.95,60598,11.19,73150.3,-5.75,-6.31,-6.31,0,*55
1507352788.18,60599,11.13,73148.5,-5.73,-6.31,-6.31,0,*52
1507352789.41,60600,11.19,73150.8,-5.73,-6.31,-6.31,0,*51
1507352790.63,60601,11.13,73146.0,-5.73,-6.31,-6.31,0,*50
1507352791.88,60602,11.19,73148.3,-5.73,-6.31,-6.27,0,*54
1507352793.15,60603,11.19,73132.3,-5.73,-6.27,-6.27,0,*52
1507352794.39,60604,11.13,73126.3,-5.73,-6.27,-6.31,0,*52
1507352795.66,60605,11.19,73132.0,-5.73,-6.27,-6.27,0,*54
1507352796.89,60606,11.19,73138.0,-5.73,-6.31,-6.31,0,*57
1507352798.13,60607,11.13,73132.8,-5.73,-6.27,-6.31,0,*51
1507352799.34,60608,11.13,73132.8,-5.75,-6.31,-6.31,0,*5F
1507352800.59,60609,11.13,73136.5,-5.73,-6.27,-6.31,0,*5F
1507352801.83,60610,11.13,73132.8,-5.73,-6.27,-6.31,0,*57
1507352803.06,60611,11.19,73130.0,-5.73,-6.31,-6.31,0,*51
1507352804.29,60612,11.13,73118.8,-5.73,-6.31,-6.31,0,*52
1507352805.49,60613,11.13,73118.3,-5.75,-6.31,-6.31,0,*55
1507352806.71,60614,11.19,73158.5,-5.75,-6.31,-6.27,0,*55
1507352807.94,60615,11.19,73150.0,-5.75,-6.31,-6.27,0,*54
1507352809.14,60616,11.13,73130.0,-5.75,-6.39,-6.31,0,*58
1507352810.36,60617,11.13,73112.5,-5.73,-6.31,-6.39,0,*5F
1507352811.56,60618,11.13,73102.0,-5.75,-6.31,-6.31,0,*5E
1507352812.76,60619,11.13,73114.5,-5.75,-6.39,-6.31,0,*57
1507352813.96,60620,11.19,73122.5,-5.75,-6.31,-6.31,0,*55
1507352815.21,60621,11.13,73104.5,-5.73,-6.31,-6.27,0,*55
1507352816.44,60622,11.19,73112.0,-5.73,-6.31,-6.31,0,*51
1507352817.69,60623,11.13,73122.0,-5.73,-6.31,-6.27,0,*57
1507352818.91,60624,11.13,73122.3,-5.73,-6.31,-6.31,0,*57
1507352820.14,60625,11.19,73128.0,-5.73,-6.31,-6.31,0,*56
1507352821.41,60626,11.13,73130.8,-5.73,-6.27,-6.19,0,*58
1507352822.61,60627,11.13,73128.3,-5.75,-6.31,-6.31,0,*52
1507352823.84,60628,11.13,73132.8,-5.75,-6.31,-6.27,0,*5A
1507352825.06,60629,11.13,73134.3,-5.73,-6.31,-6.31,0,*5A
1507352826.29,60630,11.13,73128.8,-5.75,-6.31,-6.27,0,*53
1507352827.49,60631,11.13,73124.8,-5.75,-6.31,-6.31,0,*55
1507352828.74,60632,11.19,73130.0,-5.73,-6.27,-6.31,0,*57
1507352829.98,60633,11.13,73130.0,-5.73,-6.31,-6.27,0,*56
1507352831.23,60634,11.13,73134.3,-5.75,-6.27,-6.27,0,*50
1507352832.45,60635,11.19,73140.5,-5.73,-6.31,-6.31,0,*57
1507352833.68,60636,11.19,73138.8,-5.73,-6.31,-6.31,0,*54
1507352834.91,60637,11.13,73138.8,-5.73,-6.31,-6.31,0,*55
1507352836.16,60638,11.13,73138.8,-5.73,-6.31,-6.27,0,*5D
1507352837.38,60639,11.13,73134.8,-5.75,-6.31,-6.27,0,*5A
1507352838.62,60640,11.13,73138.8,-5.75,-6.27,-6.27,0,*53
1507352839.83,60641,11.13,73136.5,-5.75,-6.31,-6.31,0,*52
1507352841.05,60642,11.19,73134.0,-5.75,-6.27,-6.31,0,*56
1507352842.3,60643,11.19,73138.3,-5.73,-6.27,-6.31,0,*51
1507352843.56,60644,11.13,73138.8,-5.73,-6.27,-6.27,0,*51
1507352844.81,60645,11.19,73138.0,-5.75,-6.27,-6.27,0,*56
1507352846.05,60646,11.13,73132.3,-5.73,-6.31,-6.27,0,*54
1507352847.3,60647,11.13,73130.3,-5.73,-6.31,-6.27,0,*55
1507352848.54,60648,11.13,73122.3,-5.75,-6.27,-6.27,0,*5B
1507352849.79,60649,11.13,73132.8,-5.73,-6.31,-6.27,0,*5B
1507352851.04,60650,11.19,73136.5,-5.75,-6.27,-6.27,0,*52
1507352852.24,60651,11.19,73134.8,-5.75,-6.31,-6.31,0,*53
1507352853.46,60652,11.13,73136.0,-5.73,-6.31,-6.31,0,*56
1507352854.69,60653,11.19,73140.3,-5.73,-6.31,-6.31,0,*57
1507352855.96,60654,11.19,73138.8,-5.73,-6.27,-6.27,0,*50
1507352857.23,60655,11.13,73136.0,-5.73,-6.27,-6.19,0,*5C
1507352858.5,60656,11.13,73136.0,-5.73,-6.27,-6.19,0,*5F
1507352859.72,60657,11.13,73138.5,-5.71,-6.23,-6.13,0,*52
1507352860.99,60658,11.13,73140.5,-5.73,-6.27,-6.27,0,*5C
1507352862.26,60659,11.19,73140.5,-5.73,-6.27,-6.27,0,*5D
1507352863.5,60660,11.19,73142.3,-5.73,-6.27,-6.31,0,*50
1507352864.77,60661,11.13,73142.8,-5.73,-6.27,-6.27,0,*56
1507352866.04,60662,11.13,73144.3,-5.73,-6.27,-6.27,0,*55
1507352867.3,60663,11.13,73144.8,-5.73,-6.27,-6.27,0,*54
1507352868.57,60664,11.13,73140.3,-5.73,-6.27,-6.27,0,*53
1507352869.82,60665,11.13,73138.8,-5.75,-6.27,-6.19,0,*59
1507352871.08,60666,11.13,73122.8,-5.73,-6.27,-6.27,0,*51
1507352872.31,60667,11.13,73126.3,-5.73,-6.31,-6.31,0,*50
1507352873.58,60668,11.19,73134.0,-5.73,-6.27,-6.27,0,*5F
1507352874.84,60669,11.13,73136.0,-5.73,-6.27,-6.27,0,*5E
1507352876.09,60670,11.13,73122.0,-5.73,-6.31,-6.27,0,*51
1507352877.36,60671,11.13,73124.3,-5.73,-6.27,-6.27,0,*57
1507352878.63,60672,11.13,73118.0,-5.73,-6.27,-6.27,0,*54
1507352879.87,60673,11.13,73128.3,-5.73,-6.31,-6.27,0,*52
1507352881.11,60674,11.19,73128.3,-5.71,-6.27,-6.23,0,*54
1507352882.36,60675,11.19,73134.0,-5.71,-6.23,-6.23,0,*51
1507352883.63,60676,11.13,73130.5,-5.73,-6.27,-6.27,0,*50
1507352884.87,60677,11.19,73140.0,-5.71,-6.27,-6.23,0,*57
1507352886.14,60678,11.13,73138.8,-5.73,-6.27,-6.27,0,*5E
1507352887.39,60679,11.19,73138.5,-5.73,-6.27,-6.31,0,*58
1507352888.63,60680,11.13,73128.0,-5.73,-6.31,-6.27,0,*5E
1507352889.88,60681,11.13,73130.0,-5.71,-6.27,-6.27,0,*5A
1507352891.12,60682,11.13,73128.8,-5.71,-6.23,-6.23,0,*59
1507352892.37,60683,11.13,73132.0,-5.71,-6.27,-6.23,0,*5C
1507352893.61,60684,11.13,73136.3,-5.71,-6.27,-6.23,0,*5B
1507352894.86,60685,11.13,73140.5,-5.71,-6.23,-6.27,0,*5A
1507352896.1,60686,11.19,73142.3,-5.71,-6.23,-6.23,0,*5D
1507352897.35,60687,11.13,73138.5,-5.71,-6.23,-6.23,0,*5C
1507352898.59,60688,11.19,73140.3,-5.71,-6.23,-6.23,0,*53
1507352899.84,60689,11.19,73140.3,-5.71,-6.27,-6.27,0,*52
1507352901.07,60690,11.19,73140.3,-5.73,-6.31,-6.31,0,*58
1507352902.34,60691,11.13,73136.3,-5.73,-6.27,-6.27,0,*59
1507352903.58,60692,11.19,73138.5,-5.71,-6.23,-6.23,0,*58
1507352904.83,60693,11.13,73140.5,-5.71,-6.27,-6.27,0,*59
1507352906.07,60694,11.13,73144.5,-5.71,-6.27,-6.23,0,*5A